Location: Cahoon Acres
(40.8736°N, 111.8994°W)
Time: 10:03:13
(UTC+00:00)

SR - Pass Details

Date: 08 June 2020
Orbit: 583 x 872 km, 66.7° (Epoch: 03 July)

Event Time Altitude Azimuth Distance (km) Brightness Sun altitude
Rises 18:32:49 0° 152° (SSE) 3,294 ? 68.8°
Maximum altitude 18:38:30 10° 104° (ESE) 2,273 ? 69.4°
Drops below altitude 10° 18:38:36 10° 103° (ESE) 2,272 ? 69.4°
Sets 18:43:54 0° 56° (NE) 3,096 ? 69.9°
